map of JOS home
JOS - Airport
Location
City:  Jos, Plateau, Nigeria
Name:Yakubu Gowon Airport
ICAO:DNJO
IATA:JOS

Details
Type:Airport (Aerodrome, Airfield)
Use:Public/Civil
Latitude:938'23"N (9.639828)
Longitude:852'09"E (8.869050)
Datum:WGS 1984
Elevation:4232 ft (1290 m)
Variation:0.16W (WMM2015v2 magnetic declination)
0.12 annual change
Runways:1
Longest:9845 × 148 ft (3001 × 45 m), paved

Time
Time Zone:UTC+1
Local Time:

Weather
METAR:DNJO 040700Z 15005KT 8000 NSC 20/20 Q1018
TAF:DNJO 040930Z 0412/0518 07008KT 7000 NSC
BECMG 0413/0415 17010KT

Related Locations
Nearby:
Farthest:AAU: 12148 mi / 19550 km
Asau, WS

Find:

   beyond  
but within

Other Information
Maps:
NOTAMs:
Links:
Sources:

  
  • flag of Nigeria
  

Sectional Chart

Flight Planning
at skyvector.com

Satellite Image

Google Maps Satellite view

 

Copyright © 2004-2019 Karl L. Swartz. All rights reserved.
The Great Circle Mapper name and logo are trademarks of the Great Circle Mapper.
All other trademarks mentioned herein belong to their respective owners.
Please see credits for attibutions and further copyright information.

  Follow gcmap on Facebook Follow gcmap on Twitter GCmap on LinkedIn

hCard Microformat

Geo Microformat